• In Uzbekistan
  • List of Countries
  • For 7 days
  • Water Temperature
  • Satellite Maps
  • Weather Map
  • Weather Widgets
  • user-avatar
    Login

    Hourly Weather Algiers

    Today, 7 December, Wednesday

    Time Temperature Precipitation Wind Pressure Humidity
    00:00 +13°C° 0 mm 3 mps 754 mmHg 87%
    01:00 +13°C° 0.6 mm 3 mps 754 mmHg 88%
    02:00 +13°C° 0.6 mm 3 mps 755 mmHg 89%
    03:00 +13°C° 0.6 mm 4 mps 755 mmHg 91%
    04:00 +13°C° 0.7 mm 4 mps 755 mmHg 92%
    05:00 +13°C° 0.7 mm 4 mps 755 mmHg 94%
    06:00 +13°C° 0 mm 5 mps 755 mmHg 96%
    07:00 +14°C° 0.6 mm 5 mps 755 mmHg 95%
    08:00 +14°C° 0.6 mm 5 mps 755 mmHg 93%
    09:00 +14°C° 0.6 mm 5 mps 755 mmHg 92%
    10:00 +15°C° 0.2 mm 5 mps 755 mmHg 89%
    11:00 +15°C° 0.2 mm 5 mps 755 mmHg 85%
    12:00 +16°C° 0.2 mm 5 mps 755 mmHg 82%
    13:00 +16°C° 0.3 mm 5 mps 755 mmHg 82%
    14:00 +16°C° 0.3 mm 5 mps 755 mmHg 83%
    15:00 +17°C° 0.3 mm 4 mps 755 mmHg 84%
    16:00 +15°C° 0.3 mm 4 mps 756 mmHg 87%
    17:00 +14°C° 0.3 mm 4 mps 756 mmHg 91%
    18:00 +13°C° 0.3 mm 4 mps 756 mmHg 95%
    19:00 +13°C° 0.2 mm 3 mps 756 mmHg 95%
    20:00 +13°C° 0.2 mm 3 mps 757 mmHg 95%
    21:00 +14°C° 0.2 mm 2 mps 757 mmHg 95%
    22:00 +14°C° 0.1 mm 2 mps 757 mmHg 96%
    23:00 +13°C° 0.1 mm 2 mps 757 mmHg 96%

    Tomorrow, 8 December, Thursday

    Time Temperature Precipitation Wind Pressure Humidity
    00:00 +13°C° 0.1 mm 2 mps 757 mmHg 96%
    01:00 +13°C° 0 mm 2 mps 757 mmHg 96%
    02:00 +13°C° 0 mm 2 mps 757 mmHg 96%
    03:00 +12°C° 0 mm 2 mps 757 mmHg 96%
    04:00 +12°C° 0 mm 2 mps 757 mmHg 96%
    05:00 +12°C° 0 mm 2 mps 757 mmHg 95%
    06:00 +12°C° 0 mm 2 mps 757 mmHg 95%
    07:00 +13°C° 0 mm 2 mps 757 mmHg 91%
    08:00 +15°C° 0 mm 2 mps 757 mmHg 86%
    09:00 +16°C° 0 mm 2 mps 758 mmHg 82%
    10:00 +17°C° 0 mm 2 mps 757 mmHg 78%
    11:00 +18°C° 0 mm 2 mps 757 mmHg 74%
    12:00 +19°C° 0 mm 1 mps 757 mmHg 70%
    13:00 +18°C° 0 mm 2 mps 757 mmHg 72%
    14:00 +18°C° 0 mm 2 mps 757 mmHg 74%
    15:00 +18°C° 0 mm 3 mps 757 mmHg 75%
    16:00 +17°C° 0 mm 3 mps 757 mmHg 82%
    17:00 +14°C° 0 mm 3 mps 758 mmHg 89%
    18:00 +13°C° 0 mm 3 mps 758 mmHg 95%
    19:00 +13°C° 0.2 mm 3 mps 758 mmHg 96%
    20:00 +12°C° 0.2 mm 3 mps 758 mmHg 96%
    21:00 +13°C° 0.2 mm 2 mps 759 mmHg 96%
    22:00 +13°C° 0.1 mm 2 mps 759 mmHg 95%
    23:00 +13°C° 0.1 mm 2 mps 759 mmHg 94%

    Day after tomorrow, 9 December, Friday

    Time Temperature Precipitation Wind Pressure Humidity
    00:00 +13°C° 0.1 mm 2 mps 759 mmHg 94%
    01:00 +13°C° 0 mm 2 mps 758 mmHg 93%
    02:00 +13°C° 0 mm 2 mps 758 mmHg 92%
    03:00 +13°C° 0 mm 2 mps 758 mmHg 91%
    04:00 +12°C° 0 mm 1 mps 758 mmHg 91%
    05:00 +12°C° 0 mm 1 mps 758 mmHg 91%
    06:00 +12°C° 0 mm 1 mps 758 mmHg 91%
    07:00 +14°C° 0 mm 1 mps 759 mmHg 84%
    08:00 +15°C° 0 mm 1 mps 759 mmHg 78%
    09:00 +18°C° 0 mm 1 mps 760 mmHg 72%
    10:00 +19°C° 0 mm 1 mps 759 mmHg 66%
    11:00 +20°C° 0 mm 1 mps 759 mmHg 61%
    12:00 +21°C° 0 mm 1 mps 759 mmHg 56%
    13:00 +21°C° 0 mm 1 mps 759 mmHg 59%
    14:00 +19°C° 0 mm 2 mps 758 mmHg 62%
    15:00 +19°C° 0 mm 2 mps 758 mmHg 64%
    16:00 +17°C° 0 mm 2 mps 758 mmHg 73%
    17:00 +15°C° 0 mm 2 mps 758 mmHg 82%
    18:00 +13°C° 0 mm 1 mps 759 mmHg 92%
    19:00 +13°C° 0 mm 1 mps 759 mmHg 92%
    20:00 +12°C° 0 mm 1 mps 759 mmHg 92%
    21:00 +12°C° 0 mm 1 mps 759 mmHg 92%
    22:00 +12°C° 0 mm 1 mps 759 mmHg 91%
    23:00 +12°C° 0 mm 1 mps 758 mmHg 91%

    10 December, Saturday

    Time Temperature Precipitation Wind Pressure Humidity
    00:00 +12°C° 0 mm 1 mps 758 mmHg 90%
    01:00 +12°C° 0 mm 1 mps 758 mmHg 89%
    02:00 +11°C° 0 mm 1 mps 758 mmHg 89%
    03:00 +11°C° 0 mm 1 mps 758 mmHg 88%
    04:00 +11°C° 0 mm 1 mps 757 mmHg 88%
    05:00 +11°C° 0 mm 1 mps 757 mmHg 88%
    06:00 +10°C° 0 mm 1 mps 757 mmHg 88%
    07:00 +13°C° 0 mm 1 mps 758 mmHg 80%
    08:00 +15°C° 0 mm 1 mps 758 mmHg 72%
    09:00 +18°C° 0 mm 1 mps 758 mmHg 64%
    10:00 +19°C° 0 mm 1 mps 758 mmHg 60%
    11:00 +20°C° 0 mm 1 mps 757 mmHg 55%
    12:00 +21°C° 0 mm 1 mps 757 mmHg 50%
    13:00 +21°C° 0 mm 1 mps 757 mmHg 53%
    14:00 +21°C° 0 mm 1 mps 757 mmHg 56%
    15:00 +19°C° 0 mm 2 mps 756 mmHg 58%
    16:00 +18°C° 0 mm 1 mps 756 mmHg 68%
    17:00 +15°C° 0 mm 1 mps 756 mmHg 79%
    18:00 +12°C° 0 mm 1 mps 756 mmHg 89%
    19:00 +12°C° 0 mm 1 mps 757 mmHg 89%
    20:00 +12°C° 0 mm 1 mps 757 mmHg 88%
    21:00 +12°C° 0 mm 1 mps 757 mmHg 88%
    22:00 +12°C° 0 mm 1 mps 757 mmHg 88%
    23:00 +11°C° 0 mm 1 mps 756 mmHg 87%

    11 December, Sunday

    Time Temperature Precipitation Wind Pressure Humidity
    00:00 +11°C° 0 mm 1 mps 756 mmHg 86%
    01:00 +11°C° 0 mm 1 mps 756 mmHg 86%
    02:00 +11°C° 0 mm 1 mps 755 mmHg 86%
    03:00 +10°C° 0 mm 0 mps 755 mmHg 85%
    04:00 +10°C° 0 mm 1 mps 755 mmHg 85%
    05:00 +10°C° 0 mm 1 mps 755 mmHg 84%
    06:00 +10°C° 0 mm 1 mps 755 mmHg 84%
    07:00 +12°C° 0 mm 1 mps 755 mmHg 76%
    08:00 +15°C° 0 mm 1 mps 755 mmHg 67%
    09:00 +18°C° 0 mm 1 mps 755 mmHg 59%
    10:00 +19°C° 0 mm 1 mps 755 mmHg 54%
    11:00 +20°C° 0 mm 1 mps 755 mmHg 49%
    12:00 +21°C° 0 mm 1 mps 754 mmHg 45%
    13:00 +21°C° 0 mm 1 mps 754 mmHg 47%
    14:00 +21°C° 0 mm 1 mps 754 mmHg 50%
    15:00 +20°C° 0 mm 1 mps 753 mmHg 52%
    16:00 +18°C° 0 mm 1 mps 753 mmHg 63%
    17:00 +13°C° 0 mm 0 mps 754 mmHg 73%
    18:00 +11°C° 0 mm 0 mps 754 mmHg 84%
    19:00 +10°C° 0 mm 0 mps 754 mmHg 84%
    20:00 +10°C° 0 mm 0 mps 754 mmHg 83%
    21:00 +11°C° 0 mm 1 mps 754 mmHg 83%
    22:00 +11°C° 0 mm 1 mps 754 mmHg 82%
    23:00 +11°C° 0 mm 1 mps 754 mmHg 82%

    12 December, Monday

    Time Temperature Precipitation Wind Pressure Humidity
    00:00 +11°C° 0 mm 1 mps 754 mmHg 81%
    01:00 +10°C° 0 mm 1 mps 753 mmHg 81%
    02:00 +10°C° 0 mm 1 mps 753 mmHg 81%
    03:00 +10°C° 0 mm 1 mps 753 mmHg 80%
    04:00 +10°C° 0 mm 1 mps 753 mmHg 80%
    05:00 +10°C° 0 mm 1 mps 753 mmHg 79%
    06:00 +10°C° 0 mm 1 mps 753 mmHg 79%
    07:00 +12°C° 0 mm 2 mps 753 mmHg 69%
    08:00 +14°C° 0 mm 2 mps 754 mmHg 59%
    09:00 +17°C° 0 mm 2 mps 754 mmHg 50%
    10:00 +18°C° 0 mm 2 mps 754 mmHg 46%
    11:00 +19°C° 0 mm 2 mps 753 mmHg 42%
    12:00 +20°C° 0 mm 2 mps 753 mmHg 38%
    13:00 +20°C° 0 mm 2 mps 753 mmHg 41%
    14:00 +19°C° 0 mm 3 mps 753 mmHg 44%
    15:00 +19°C° 0 mm 3 mps 753 mmHg 48%
    16:00 +16°C° 0 mm 2 mps 753 mmHg 59%
    17:00 +14°C° 0 mm 2 mps 753 mmHg 71%
    18:00 +11°C° 0 mm 1 mps 753 mmHg 83%
    19:00 +11°C° 0 mm 1 mps 753 mmHg 82%
    20:00 +10°C° 0 mm 2 mps 753 mmHg 82%
    21:00 +10°C° 0 mm 2 mps 753 mmHg 81%
    22:00 +10°C° 0 mm 2 mps 753 mmHg 80%
    23:00 +10°C° 0 mm 2 mps 753 mmHg 79%
    Show more